Regional Weather Roundup
Issued by NWS

Home | Current Version | Previous Version | Graphics & Text | Print | Product List | Glossary On
Versions: 1 2 3 4 5 6 7 8 9 10 11 12 13 14 15 16 17 18 19 20 21 22 23 24 25 26 27 28 29 30 31 32 33 34 35 36 37 38 39 40 41 42 43 44 45 46 47 48 49 50
000
ASUS43 KFSD 271102
RWRSD

WEATHER ROUNDUP FOR SOUTH DAKOTA
NATIONAL WEATHER SERVICE SIOUX FALLS SD
600 AM CDT THU APR 27 2017

NOTE: "FAIR" INDICATES FEW OR NO CLOUDS BELOW 12,000 FEET WITH NO
SIGNIFICANT WEATHER AND/OR OBSTRUCTIONS TO VISIBILITY.


SDZ001>005-009-010-012>017-271200-
NORTHWEST AND NORTH CENTRAL SOUTH DAKOTA

CITY           SKY/WX    TMP DP  RH WIND       PRES   REMARKS
BUFFALO          N/A     27  24  89 E9        29.60F WCI  18
FAITH            N/A     27  26  96 NE9       29.69F WCI  18
MOBRIDGE       CLOUDY    33  25  72 NW6       29.70S WCI  28
$$

SDZ012>016-024>037-041>051-057-063-072>074-271200-
SOUTHWEST AND SOUTH CENTRAL SOUTH DAKOTA

CITY           SKY/WX    TMP DP  RH WIND       PRES   REMARKS
RAPID CTY ARPT CLOUDY    28  25  88 E3        29.64F
PIERRE         CLOUDY    29  26  89 NW5       29.71S WCI  24
CUSTER         CLOUDY    29  26  89 CALM      29.59F
PHILIP         CLEAR     23  22  96 NW3       29.70F
PINE RIDGE     CLOUDY    28  26  92 NE5       29.63F WCI  23
SPEARFISH      FAIR      27  25  93 CALM      29.61F
WINNER         FAIR      21  17  84 W7        29.69F WCI  12
$$

SDZ004>011-016>023-039-040-271200-
NORTHEAST SOUTH DAKOTA

CITY           SKY/WX    TMP DP  RH WIND       PRES   REMARKS
ABERDEEN       CLOUDY    29  22  75 N10       29.71S WCI  20
WATERTOWN      CLOUDY    27  23  85 N16       29.62S WCI  15
BROOKINGS      CLOUDY    28  24  85 NW16      29.62S WCI  16
SISSETON         N/A     27  24  89 N17       29.65S WCI  14
$$

SDZ017-020-022-023-036>040-048>070-271200-
SOUTHEAST SOUTH DAKOTA

CITY           SKY/WX    TMP DP  RH WIND       PRES   REMARKS
SIOUX FALLS    CLOUDY    30  27  88 NW16      29.64S WCI  19
HURON          CLOUDY    30  24  78 NW16      29.69F WCI  19
CHAMBERLAIN    CLOUDY    32  31  96 W8        29.69F WCI  25
MITCHELL       CLOUDY    32  26  78 NW13      29.69S WCI  22
YANKTON        PTCLDY    30  23  74 NW13      29.67R WCI  20
$$

ABBREVIATIONS USED IN REMARKS
   TC - TEMPERATURE IN CELSIUS
  WCI - WIND CHILL INDEX
   HX - HEAT INDEX
  VSB - VISIBILITY




USA.gov is the U.S. government's official web portal to all federal, state and local government web resources and services.